This is the latest recevied weather packets stored in our database for station/object JS2WAD-13. If no packets are shown the sender has not sent any weather packets the latest 10 day(s).
| Time | Temp. | Humidity | Pressure | Rain* | Wind** | Luminosity | Snow |
|---|---|---|---|---|---|---|---|
| 1778217374 | 23.33° C | 70% | 896.9 hPa | 0 mm | - | 63 W/m² | - |
| 1778217074 | 23.33° C | 70% | 897.1 hPa | 0 mm | - | 88 W/m² | - |
| 1778216774 | 23.33° C | 70% | 897.1 hPa | 0 mm | - | 98 W/m² | - |
| 1778216474 | 23.33° C | 70% | 896.8 hPa | 0 mm | - | 90 W/m² | - |
| 1778216174 | 23.33° C | 70% | 897.2 hPa | 0 mm | - | 72 W/m² | - |
| 1778215874 | 23.33° C | 70% | 897.3 hPa | 0 mm | - | 83 W/m² | - |
| 1778215574 | 23.89° C | 70% | 897.2 hPa | 0 mm | - | 79 W/m² | - |
| 1778215274 | 23.89° C | 70% | 897.1 hPa | 0 mm | - | 69 W/m² | - |
| 1778214974 | 23.89° C | 70% | 897 hPa | 0 mm | - | 76 W/m² | - |
| 1778214674 | 23.89° C | 70% | 897.2 hPa | 0 mm | - | 74 W/m² | - |
| 1778214374 | 23.89° C | 70% | 897.2 hPa | 0 mm | - | 83 W/m² | - |
| 1778214074 | 23.89° C | 70% | 897.2 hPa | 0 mm | - | 74 W/m² | - |
| 1778213774 | 23.89° C | 70% | 897.4 hPa | 0 mm | - | 70 W/m² | - |
| 1778213474 | 23.89° C | 70% | 897.5 hPa | 0 mm | - | 72 W/m² | - |
| 1778213174 | 23.89° C | 71% | 897.5 hPa | 0 mm | - | 70 W/m² | - |
| 1778212874 | 23.89° C | 71% | 897.1 hPa | 0 mm | - | 91 W/m² | - |
| 1778212574 | 23.89° C | 71% | 897.7 hPa | 0 mm | - | 88 W/m² | - |
| 1778212274 | 23.89° C | 71% | 897.5 hPa | 0 mm | - | 114 W/m² | - |
| 1778211974 | 23.89° C | 72% | 897.8 hPa | 0 mm | - | 118 W/m² | - |
| 1778211674 | 23.89° C | 73% | 897.7 hPa | 0 mm | - | 137 W/m² | - |
| 1778211374 | 23.89° C | 75% | 897.8 hPa | 0 mm | - | 176 W/m² | - |
| 1778211074 | 23.89° C | 74% | 898 hPa | 0 mm | - | 200 W/m² | - |
| 1778210774 | 23.89° C | 74% | 898 hPa | 0 mm | - | 195 W/m² | - |
| 1778210474 | 23.89° C | 74% | 898 hPa | 0 mm | - | 142 W/m² | - |
| 1778210174 | 23.89° C | 74% | 898.4 hPa | 0 mm | - | 121 W/m² | - |
* Rain latest hour (hover to see other rain measurements)
** Current wind speed in m/s (hover to see current wind gust speed)